Location: ???? ????????
(44.2172°N, 135.1037°E)
Time: 10:06:23
(UTC+00:00)

Daily predictions for brighter satellites

Satellite Brightness Start Highest point End
(mag) Time Altitude Azimuth Time Altitude Azimuth Time Altitude Azimuth
Meteor 2-20 Rocket 4.4 12:00:17 10° S 12:06:04 87° W 12:12:04 10° N
Terra 3.6 12:07:54 10° SSW 12:11:53 27° W 12:15:54 10° NW
Cosmos 2208 Rocket 4.1 12:07:07 10° SSW 12:12:20 83° WNW 12:17:32 10° NNE
Cosmos 2227 4.3 12:08:58 10° SSW 12:14:43 84° WNW 12:20:31 10° NNE
SPOT 3 Rocket 3.5 12:11:14 17° SSE 12:15:17 75° ENE 12:20:26 10° N
BlueWalker 3 3.6 12:13:05 10° W 12:15:43 20° SW 12:17:35 14° S
Sich 1 3.0 12:11:54 10° N 12:16:08 66° E 12:18:59 20° SSE
GP-B 4.2 12:12:42 10° NNE 12:16:27 27° E 12:18:26 20° SE
CZ-2C R/B 3.8 12:15:49 16° E 12:16:34 18° ENE 12:18:33 10° NNE
CZ-4B R/B 2.9 12:14:32 21° SSE 12:16:56 61° ENE 12:20:50 10° N
Cosmos 44 Rocket 3.8 12:12:25 10° NW 12:17:29 58° WSW 12:21:07 18° SSE
Milstar 3 Cent rocket 3.7 12:16:04 10° SSW 12:18:24 14° S 12:18:24 14° S
Cosmos 1461 3.1 12:18:23 10° NNW 12:21:46 44° NE 12:23:32 23° ESE
IRS-1C Rocket 4.2 12:19:41 19° SSE 12:23:25 67° ENE 12:28:38 10° N
Ariane Rocket 3.0 12:23:47 20° SSE 12:27:18 73° ENE 12:32:23 10° N
Cosmos 1553 Rocket 4.2 12:24:21 17° SSE 12:29:10 56° E 12:35:20 10° NNE
Cosmos 1603 3.7 12:24:52 10° NNW 12:30:39 86° ENE 12:34:24 22° SSE
CZ-4C R/B 3.4 12:24:18 10° NW 12:31:27 61° WSW 12:38:08 18° SSE
Cosmos 1844 Rocket 3.4 12:33:13 10° SW 12:38:39 55° WNW 12:44:08 10° NNE
NOSS 3-2 (C) 3.3 12:35:17 16° S 12:38:57 46° ESE 12:44:22 10° NE
Cosmos 1758 3.2 12:37:17 10° NNW 12:40:58 74° W 12:42:49 27° S
USA 186 3.6 12:40:59 12° SW 12:42:07 16° W 12:43:43 10° NW
Okean-O 4.2 12:38:24 10° SSW 12:42:11 28° W 12:45:59 10° NW
Okean 3 Rocket 3.7 12:37:44 10° NNW 12:42:11 74° W 12:44:50 23° S
NOSS 2-3 (C) 4.4 12:47:59 22° E 12:47:59 22° E 12:49:56 10° ENE
Cosmos 1805 Rocket 3.4 12:45:30 10° N 12:49:50 83° E 12:51:51 31° SSE
Cosmos 1833 Rocket 3.8 12:46:06 10° N 12:51:14 34° NE 12:54:40 18° ESE
ATLAS 2AS CENTAUR R/B 4.3 12:48:06 10° WNW 12:53:12 23° WSW 12:58:20 10° SSW
Cosmos 1408 Rocket 3.5 12:49:49 10° N 12:54:14 88° W 12:56:20 31° S
Cosmos 2278 Rocket 4.1 12:59:11 12° E 12:59:28 12° E 13:01:44 10° ENE
OAO 3 Rocket 4.4 12:56:03 10° WSW 12:59:08 22° SSW 12:59:08 22° SSW
Cosmos 1743 Rocket 3.6 12:56:59 10° N 13:01:17 63° E 13:02:50 37° SSE
Cosmos 1745 Rocket 4.3 12:58:32 10° N 13:04:41 55° ENE 13:07:51 29° SE
Cosmos 1340 Rocket 3.7 13:01:24 10° NNW 13:04:55 39° W 13:06:34 25° SW
CZ-4B R/B 4.1 13:05:32 23° SSW 13:08:28 51° W 13:13:29 10° NNW
Lacrosse 5 rocket 3.1 13:12:23 14° ENE 13:12:23 14° ENE 13:13:08 10° ENE
Cosmos 1151 Rocket 3.8 13:11:23 19° SSW 13:14:15 48° WNW 13:18:28 10° N
Cosmos 2344 3.7 13:09:22 21° S 13:14:37 48° ESE 13:21:27 10° NE
NOSS 2-3 (D) 3.0 13:14:39 31° SW 13:16:18 87° SE 13:20:04 10° NE
Cosmos 1703 3.1 13:21:17 49° WSW 13:21:48 58° W 13:24:56 10° N
Cosmos 1607 4.0 13:15:33 10° NW 13:21:58 77° WSW 13:25:02 33° SSE
OAO 2 Rocket 4.4 13:17:51 10° WSW 13:21:17 27° SSW 13:21:17 27° SSW
Okean O Rocket 4.3 13:21:12 10° WSW 13:22:24 11° W 13:23:36 10° WNW
Cosmos 1241 Rocket 4.3 13:20:18 22° SSW 13:24:26 71° ESE 13:30:39 10° NE
BREEZE-M R/B 3.9 13:22:21 29° SSW 13:24:40 52° SE 13:33:09 10° ENE
Cosmos 2285 Rocket 4.2 13:19:22 10° NNW 13:25:38 63° WSW 13:28:51 30° S
Cosmos 1417 Rocket 4.4 13:23:16 30° S 13:26:33 81° E 13:32:52 10° N
IKONOS-2 4.3 13:27:12 10° NNE 13:31:19 79° ESE 13:32:14 53° S
Cosmos 2315 Rocket 4.1 13:29:36 34° SSE 13:32:15 61° E 13:38:22 10° NNE
Cosmos 1633 Rocket 3.4 13:28:18 10° N 13:32:36 53° E 13:33:33 44° ESE
Cosmos 1953 1.9 13:34:45 10° N 13:38:20 78° W 13:38:36 71° SSW
Iridium 4 Rocket 4.1 13:37:33 26° SSW 13:40:30 54° W 13:45:34 10° N
NOSS 2-3 (E) 4.0 13:41:03 17° WSW 13:43:38 47° NW 13:47:17 10° NNE
USA 215 3.2 13:40:52 32° SE 13:44:14 80° SW 13:50:48 10° NW
CZ-2C R/B 4.4 13:47:09 15° W 13:47:09 15° W 13:48:42 10° NW
Meteor 1-21 4.2 13:46:48 42° SSE 13:48:43 71° E 13:54:20 10° NNE
Cosmos 1943 Rocket 2.6 13:49:17 39° SE 13:50:24 44° ESE 13:55:45 10° NE
Cosmos 1420 Rocket 4.1 13:45:38 10° NNW 13:50:50 66° ENE 13:52:27 43° SE
ARIANE 5 R/B 3.2 13:52:24 39° ESE 13:53:25 46° ENE 13:57:40 10° N
Cosmos 1538 Rocket 4.5 13:50:36 23° SW 13:53:40 57° WNW 13:58:50 10° NNE
Helios 1A 3.2 13:54:12 10° N 13:58:03 58° WNW 13:58:58 45° WSW
Cosmos 1400 Rocket 4.1 13:55:32 10° NNE 13:58:40 26° ENE 13:58:51 26° ENE
Cosmos 923 Rocket 3.9 14:00:14 48° S 14:01:41 75° ESE 14:06:55 10° NNE
Cosmos 1470 Rocket 3.5 13:59:36 10° N 14:04:04 78° E 14:04:45 62° SSE
ALOS 2 3.0 14:04:58 45° ESE 14:05:46 52° ENE 14:10:03 10° N
CZ-2C R/B 4.2 14:04:30 18° ESE 14:06:51 25° ENE 14:11:03 10° N
BREEZE-M DEB (TANK) 3.3 14:01:44 10° WNW 14:07:07 68° SSW 14:09:21 35° SE
Helios 1B rocket 2.0 14:08:15 76° NW 14:08:15 76° NW 14:11:31 10° NNW
Cosmos 2112 Rocket 4.2 14:07:47 46° SE 14:08:34 51° ESE 14:13:33 10° NNE
S3M 4.4 14:05:27 28° SW 14:08:37 57° WNW 14:14:40 10° N
Cosmos 1933 Rocket 4.3 14:07:20 10° N 14:11:24 39° ENE 14:11:58 37° E
Okean 2 3.0 14:12:00 87° ESE 14:12:01 87° E 14:15:53 10° N
USA 59 Rocket 1.1 14:14:24 24° ENE 14:14:24 24° ENE 14:15:51 10° NE
USA 81 4.2 14:11:23 10° N 14:16:37 61° E 14:17:54 47° SE
Timation 1 Rocket 4.2 14:11:34 10° NNW 14:17:34 83° WSW 14:19:27 46° SSE
CZ-2C R/B 3.8 14:14:01 10° N 14:18:42 79° WNW 14:19:48 53° SSW
Cosmos 1371 Rocket 4.2 14:15:47 10° NNW 14:21:00 61° ENE 14:22:31 43° SE
GEOS 3 Rocket 3.6 14:20:11 48° SSE 14:21:46 83° SW 14:27:11 10° NW
Cosmos 1833 Rocket 3.4 14:29:58 10° NW 14:35:10 39° WSW 14:36:19 35° SW
Cosmos 1441 Rocket 3.9 14:36:12 37° NE 14:36:12 37° NE 14:38:28 10° NNE
PSLV R/B 3.6 14:32:16 10° NNE 14:36:56 87° WNW 14:37:41 63° SSW
Cosmos 2082 Rocket 2.8 14:34:56 10° NNW 14:40:23 49° ENE 14:42:55 29° ESE
USA 238 DEB 3.4 14:39:27 37° SW 14:42:04 90° NW 14:48:46 10° NE
USA 238 3.4 14:39:42 38° SW 14:42:17 89° ESE 14:48:59 10° NE
Cosmos 2278 Rocket 2.1 14:40:58 49° SSW 14:42:37 87° ESE 14:48:20 10° NNE
Cosmos 1869 Rocket 3.6 14:39:10 10° N 14:43:26 63° E 14:43:48 60° ESE
Helios 1B 4.3 14:39:37 10° NNE 14:43:53 86° WNW 14:44:14 75° SSW
Spot 4 4.1 14:44:44 48° SW 14:45:27 53° W 14:50:12 10° NNW
MetOp-A 3.6 14:45:29 54° E 14:45:45 56° ENE 14:49:32 10° N
Lacrosse 5 rocket 2.3 14:45:26 30° WNW 14:46:31 38° NW 14:49:50 10° NE
Cosmos 1515 Rocket 4.3 14:50:49 39° WSW 14:51:33 43° WNW 14:55:43 10° N
Cosmos 1331 Rocket 4.3 14:56:38 10° NNW 15:01:43 57° ENE 15:03:22 39° ESE
CZ-2C R/B 3.1 14:57:50 10° NNE 15:03:25 83° WNW 15:04:48 52° SSW
Cosmos 1680 Rocket 4.3 15:01:49 30° WSW 15:03:51 44° WNW 15:08:50 10° N
Cosmos 1733 Rocket 3.8 14:59:49 10° N 15:03:52 40° ENE 15:04:34 37° E
ACS3 Solar Sail 2.1 14:59:16 10° NNE 15:04:48 48° E 15:06:22 39° SE
Cosmos 1624 Rocket 4.2 15:00:16 10° NNW 15:05:26 55° WSW 15:06:16 49° SW
Cosmos 1862 Rocket 4.2 15:08:27 41° ESE 15:08:44 42° E 15:12:47 10° NNE
Okean 3 4.2 15:10:42 38° W 15:10:58 38° WNW 15:14:43 10° N
Cosmos 1048 Rocket 3.9 15:10:43 57° SSW 15:11:48 88° ESE 15:17:05 10° NNE
Cosmos 2056 Rocket 3.9 15:07:11 10° NNW 15:12:02 45° WSW 15:12:34 43° WSW
Okean 1-7 3.2 15:18:47 54° ESE 15:19:00 55° E 15:23:07 10° NNE
NOSS 2-1 (E) 3.4 15:21:15 58° NW 15:21:15 58° NW 15:24:28 10° NNE
Cosmos 2074 Rocket 4.3 15:18:55 10° NNW 15:24:55 52° W 15:26:48 39° SW
Cosmos 2369 Rocket 3.3 15:26:51 26° SE 15:28:06 29° ESE 15:32:49 10° NE
Geosat 3.9 15:23:17 10° NNE 15:28:19 90° E 15:29:30 54° SSW
ARIANE 5 R/B 4.5 15:29:45 18° W 15:29:54 18° W 15:33:00 10° NW
Meteor 1-24 Rocket 4.1 15:30:56 40° SSE 15:32:53 58° E 15:38:47 10° NNE
SL-12 R/B(2) 4.4 15:30:53 37° S 15:34:11 61° ESE 15:43:21 10° NE
Cosmos 1943 Rocket 3.6 15:30:45 17° WSW 15:34:16 31° NW 15:39:16 10° N
Cosmos 2366 rocket 4.5 15:28:28 10° N 15:34:43 55° ENE 15:37:51 29° SE
Cosmos 614 Rocket 3.8 15:34:08 56° S 15:35:12 80° ESE 15:40:17 10° NNE
Cosmos 2327 Rocket 4.4 15:31:36 10° N 15:37:46 81° E 15:40:04 41° SSE
IDEFIX/ARIANE 42P 4.4 15:37:42 10° NE 15:41:39 21° E 15:43:48 17° SE
ARIANE 6 FM1 Upper Stage 4.2 15:43:22 24° ESE 15:43:22 24° ESE 15:46:21 10° ENE
Cosmos 2218 Rocket 4.4 15:36:51 10° N 15:43:08 58° ENE 15:46:20 29° SE
Timation 2 Rocket 4.5 15:42:48 29° WSW 15:45:54 54° WNW 15:52:18 10° NNE
CZ-2C R/B 3.0 15:45:57 41° SW 15:46:48 44° W 15:51:46 10° NNW
Lacrosse 4 Rocket 4.4 15:45:28 10° NNE 15:47:33 13° NE 15:49:36 10° ENE
Cosmos 1174 3.8 15:50:20 65° W 15:50:40 69° WNW 15:54:15 10° NNE
Cosmos 2228 Rocket 2.9 15:51:47 63° SSE 15:52:26 79° E 15:56:50 10° N
NOSS 3-1 (C) 3.1 15:55:08 44° SE 15:55:49 47° ESE 16:00:52 10° NE
Cosmos 962 Rocket 4.5 15:50:42 10° N 15:57:04 76° W 15:59:34 39° S
Landsat 5 3.7 15:56:23 10° N 15:59:58 46° WNW 16:00:10 46° W
Meteor 2-15 4.3 15:54:17 10° N 16:00:24 88° W 16:02:53 38° S
USA 59 Rocket 2.0 15:59:49 11° WNW 16:01:23 15° NW 16:03:13 10° N
Meteor 2-13 Rocket 4.4 16:02:39 40° S 16:05:03 87° W 16:11:13 10° N
Cosmos 1452 Rocket 3.7 16:04:58 10° NNW 16:10:05 54° WSW 16:11:16 44° SSW
Cosmos 2341 Rocket 3.9 16:06:05 10° N 16:12:20 76° W 16:14:59 37° S
BREEZE-M DEB (TANK) 2.9 16:09:08 10° WNW 16:17:05 66° NNE 16:20:06 10° E
Cosmos 1992 Rocket 4.2 16:14:22 10° NNW 16:19:32 66° ENE 16:22:48 23° SE
MSX 4.4 16:15:34 10° NNE 16:21:10 49° E 16:24:01 27° SSE
Lacrosse 5 rocket 4.0 16:22:14 10° NW 16:23:51 13° NNW 16:25:27 10° NNE
Cosmos 2082 Rocket 3.3 16:19:33 10° NW 16:24:07 26° WSW 16:24:42 26° WSW
Cosmos 2278 Rocket 4.3 16:23:39 10° W 16:27:28 18° NW 16:31:18 10° N
SL-8 Rocket 4.2 16:22:26 10° NNW 16:28:25 55° W 16:30:53 34° SSW
SL-8 R/B 3.6 16:29:25 35° WSW 16:31:23 89° S 16:36:11 10° ENE
Cosmos 1656 Rocket 4.5 16:28:44 25° WSW 16:31:23 41° WNW 16:36:37 10° NNE
Cosmos 1869 2.8 16:30:06 10° NNW 16:33:31 64° W 16:33:36 63° WSW
Cosmos 1300 Rocket 3.7 16:29:20 10° N 16:33:41 69° E 16:35:31 33° SSE
Cosmos 1703 Rocket 3.5 16:35:48 46° SSW 16:36:58 70° W 16:41:20 10° N
Meteor 2-15 Rocket 4.5 16:31:15 10° NNW 16:37:18 64° W 16:40:10 32° SSW
Cosmos 1140 Rocket 4.5 16:36:40 22° SSE 16:39:13 37° ESE 16:43:52 10° NE
ATLAS 5 CENTAUR R/B 1.0 16:40:49 49° WNW 16:40:57 50° NW 16:43:54 10° NNE
COSMOS 2406 3.7 16:36:33 10° NW 16:41:51 41° WSW 16:43:31 33° SW
PSLV R/B 4.1 16:39:08 10° N 16:42:55 52° WNW 16:43:47 42° WSW
Cosmos 1818 3.9 16:41:08 32° S 16:43:25 55° ESE 16:48:44 10° NE
ACS3 Solar Sail 3.0 16:42:03 10° N 16:46:45 27° WNW 16:49:44 18° WSW
Cosmos 1356 Rocket 3.7 16:44:51 10° NNW 16:48:39 44° W 16:49:19 40° SW
ADEOS Rocket 3.0 16:44:31 10° NNE 16:51:02 79° ESE 16:54:32 26° S
Cosmos 1315 Rocket 4.0 16:48:52 10° NW 16:51:58 24° W 16:52:01 24° W
USA 290 2.0 16:49:58 10° NNW 16:53:06 80° WSW 16:53:30 64° S
BREEZE-M DEB (TANK) 4.4 16:37:14 10° WSW 16:59:20 78° NNW 17:04:07 10° ENE
Cosmos 2297 3.9 16:56:41 28° SW 16:59:43 63° WNW 17:05:25 10° NNE
COSMOS 2455 2.9 17:01:40 27° SSW 17:05:05 79° ESE 17:11:07 10° NNE
Cosmos 2239 Rocket 4.4 17:01:25 10° NNW 17:07:36 74° W 17:11:57 20° S
USA 276 2.9 17:06:44 26° WNW 17:07:59 43° NNW 17:10:55 10° NE
Cosmos 2369 Rocket 2.8 17:08:36 22° WSW 17:11:52 44° WNW 17:17:13 10° NNE
ALOS 3.9 17:10:13 10° NE 17:14:09 28° E 17:18:02 10° SSE
Iridium 82 3.7 17:14:08 55° SSW 17:14:38 82° W 17:17:26 10° N
Cosmos 921 Rocket 3.5 17:12:28 22° S 17:14:57 52° ESE 17:19:03 10° NNE
Cosmos 1023 Rocket 4.4 17:13:25 26° SSW 17:16:20 86° ESE 17:21:25 10° NNE
Nadezhda 3 Rocket 4.1 17:13:58 24° SSW 17:17:50 65° W 17:24:03 10° N
SJ 16-02 3.0 17:15:31 11° SSE 17:18:50 26° E 17:22:24 10° NE
IDEFIX/ARIANE 42P 2.9 17:16:17 10° N 17:21:23 53° WNW 17:24:29 23° SW
ARIANE 6 FM1 Upper Stage 3.5 17:19:19 20° WSW 17:21:46 41° NW 17:25:41 10° NNE
SL-4 R/B 1.3 17:20:42 34° WSW 17:21:55 77° NNW 17:25:02 10° ENE
Resurs 1-4 Rocket 3.1 17:17:40 10° NNE 17:22:38 41° E 17:27:33 10° S
ADEOS II 3.7 17:18:50 10° NE 17:23:19 28° E 17:27:45 10° SSE
Cosmos 1339 Rocket 4.4 17:19:33 21° SSW 17:23:43 74° W 17:29:48 10° N
Meteor 1-21 Rocket 4.3 17:19:42 21° SSW 17:23:45 84° W 17:29:42 10° N
COSMOS 2441 4.4 17:19:08 10° NNE 17:24:01 79° ESE 17:27:28 20° S
Lacrosse 4 Rocket 1.3 17:21:43 10° NNW 17:25:56 90° NNE 17:30:06 10° SSE
Cosmos 1934 Rocket 4.0 17:20:26 10° N 17:26:44 88° W 17:33:06 10° S
Envisat 3.4 17:23:02 10° NNE 17:28:03 59° E 17:32:20 14° S
Cosmos 1782 Rocket 4.3 17:26:43 10° NNW 17:30:45 36° W 17:32:46 23° SW
FENGYUN 3A 3.9 17:25:57 10° N 17:31:12 58° WNW 17:34:47 20° SW
NOSS 3-1 (A) 2.9 17:31:27 22° SW 17:34:26 75° NW 17:39:58 10° NE
Cosmos 407 Rocket 3.9 17:33:03 15° S 17:37:11 56° ESE 17:42:11 10° NNE
H-2A R/B 4.2 17:35:16 10° SE 17:38:37 30° ENE 17:42:03 10° N
USA 308 2.6 17:36:53 25° SW 17:39:07 82° SE 17:43:21 10° NE
USA 234 3.9 17:34:22 10° ENE 17:40:36 45° SE 17:45:53 14° SSW
CZ-2D R/B 2.6 17:39:46 10° NNE 17:45:10 60° E 17:50:30 10° S
NOSS 3-1 (C) 4.5 17:42:32 10° W 17:46:44 29° NW 17:51:41 10° NNE
NPP 4.3 17:41:45 10° N 17:46:51 43° WNW 17:50:45 16° SW
NOAA 11 4.4 17:45:15 10° N 17:50:39 59° WNW 17:55:06 15° SSW
Cosmos 2242 Rocket 3.7 17:49:38 17° SSW 17:52:53 60° W 17:57:14 10° N
H-2A R/B 2.4 17:48:48 10° NNE 17:54:06 66° ESE 17:59:13 10° S
SeaSat 1 2.4 17:50:24 10° SSE 17:55:17 86° WSW 18:00:13 10° NNW
Meteor 1-11 4.3 17:54:18 14° SSW 17:59:07 68° WNW 18:04:44 10° N
Lacrosse 5 rocket 4.2 18:00:52 10° N 18:01:42 11° N 18:02:31 10° NNE
Cosmos 405 Rocket 1.9 17:59:22 15° S 18:01:43 86° ESE 18:04:41 10° N
Cosmos 1025 Rocket 3.1 17:58:42 10° S 18:03:00 83° E 18:07:23 10° N
Cosmos 371 Rocket 3.3 17:59:04 14° SSW 18:03:11 78° WNW 18:08:03 10° NNE
Cosmos 1605 Rocket 4.0 18:01:32 10° N 18:07:51 75° W 18:14:02 10° S
USA 281 4.4 18:04:58 10° SE 18:11:13 48° ENE 18:17:28 10° NNW
Cosmos 540 Rocket 3.4 18:06:30 10° NNW 18:11:37 78° WSW 18:16:40 10° SSE
Cosmos 1346 Rocket 3.9 18:09:29 14° WSW 18:11:53 25° WNW 18:14:58 10° NNW
Okean 2 Rocket 3.2 18:07:45 10° N 18:12:08 78° E 18:16:29 10° SSE
DMSP B5D2-2 4.5 18:09:18 10° S 18:14:17 45° W 18:19:20 10° NNW
Cosmos 304 Rocket 4.1 18:11:03 13° SW 18:15:12 52° WNW 18:19:52 10° NNE
Cosmos 1455 Rocket 4.5 18:14:01 10° N 18:18:06 40° ENE 18:22:10 10° SSE
Cosmos 2151 Rocket 3.6 18:15:21 10° NNW 18:19:48 64° W 18:24:14 10° S
Cosmos 1378 Rocket 4.4 18:20:37 11° SW 18:24:21 34° WNW 18:28:16 10° N
Cosmos 2221 Rocket 3.7 18:20:58 10° S 18:25:28 89° E 18:30:01 10° N
Cosmos 1697 Rocket 4.1 18:20:52 10° SSE 18:25:52 34° ESE 18:30:53 10° NE
ATLAS 3B R/B 4.4 18:22:39 10° S 18:29:07 32° ESE 18:35:49 10° NE
Cosmos 1763 Rocket 3.8 18:28:22 10° NNW 18:33:09 44° WSW 18:37:53 10° S
Cosmos 1782 3.4 18:29:53 10° N 18:33:20 52° ENE 18:36:46 10° SSE
Cosmos 2292 Rocket 2.5 18:30:34 10° S 18:33:26 90° SSW 18:36:31 10° N
METEOR-M 4.2 18:29:35 10° NNE 18:34:57 89° WNW 18:40:18 10° SSW
Sich 1 Rocket 3.7 18:36:15 10° NNW 18:40:47 68° W 18:45:16 10° S
